Location: 81360 Arifat, France
(43.7204°N, 2.3408°E)
Time: 00:55:52
(UTC+01:00)

Transit 2A Rocket - Visible Passes

Search period start: 06 December 2025 00:00
Search period end: 16 December 2025 00:00
Orbit: 580 x 903 km, 66.7° (Epoch: 05 December)

Date Brightness Start Highest point End Pass type
(mag) Time Alt. Az. Time Alt. Az. Time Alt. Az.
06 Dec 5.7 18:45:33 10° NNW 18:51:14 40° NE 18:54:02 25° E visible
06 Dec 6.4 20:28:09 10° NW 20:33:41 39° WSW 20:33:50 39° WSW visible
07 Dec 6.2 18:00:19 10° NNW 18:05:23 27° NE 18:10:16 10° E visible
07 Dec 5.5 19:42:22 10° NW 19:48:22 68° WSW 19:51:14 30° S visible
08 Dec 5.2 18:56:50 10° NNW 19:02:53 74° ENE 19:08:37 10° SE visible
08 Dec 7.6 20:40:35 10° WNW 20:44:38 19° WSW 20:48:30 10° SSW visible
09 Dec 5.5 18:11:26 10° NNW 18:17:14 46° NE 18:22:46 10° ESE visible
09 Dec 6.8 19:54:14 10° NW 19:59:31 33° WSW 20:04:31 10° S visible
10 Dec 5.9 19:08:21 10° NW 19:14:15 57° WSW 19:19:46 10° SSE visible
11 Dec 5.2 18:22:44 10° NNW 18:28:48 86° ENE 18:34:29 10° SSE visible
11 Dec 8.0 20:06:59 10° WNW 20:10:22 16° WSW 20:13:39 10° SW visible
12 Dec 5.4 17:37:18 10° NNW 17:43:11 53° NE 17:48:46 10° SE visible
12 Dec 7.3 19:20:20 10° NW 19:25:17 28° WSW 19:30:00 10° SSW visible
13 Dec 6.3 18:34:20 10° NW 18:40:04 48° WSW 18:45:27 10° S visible
14 Dec 8.3 07:27:43 10° SE 07:30:56 16° ESE 07:34:16 10° ENE visible
14 Dec 5.4 17:48:39 10° NNW 17:54:41 82° WSW 18:00:19 10° SSE visible
14 Dec 8.4 19:33:35 10° WNW 19:36:04 13° W 19:38:31 10° SW visible
15 Dec 7.7 18:46:28 10° NW 18:51:02 24° WSW 18:55:24 10° SSW visible
